Flag for Germany Weather past 2 weeks in Kamen, North Rhine-Westphalia, Germany

Now
36 °F

Light rain. Fog.


Feels Like: 29 °F
Forecast: 36 / 42 °F
Wind: 8 mph from Southwest

Location: Dortmund / Wickede

Current Time: Jan 25, 2015 at 6:11:07 PM

Latest Report: Jan 25, 2015 at 5:20 PM


Visibility: 2 mi

Pressure: 30.36 "Hg

Humidity: 93%

Dew point: 34 °F

Location of KamenLocation

Historic Weather in Kamen — Graph

°F

Kamen temperature yesterday

Maximum temperature yesterday: 36 °F (at 6:20 PM)
Minimum temperature yesterday: 28 °F (at 5:20 AM)
Average temperature yesterday: 32 °F

Past Weeks' High & Low Weather Summary

 TemperatureHumidityPressure
High52 °F (Jan 13, 12:20 PM)93% (Jan 17, 7:20 AM)30.39 "Hg (Jan 17, 7:20 AM)
Low27 °F (Jan 21, 8:20 AM)57% (Jan 10, 9:50 PM)29.42 "Hg (Jan 15, 4:20 PM)
Average37 °F78%29.92 "Hg
* Reported Jan 10 4:20 PM — Jan 25 4:50 PM, Kamen, Weather by CustomWeather, © 2014

Note: Actual official high and low records may vary slightly from our data, if they occured in-between our weather recording intervals... More about our weather records

Advertising

Kamen weather history for previous 24 hours

 ConditionsComfort  
Time TempWeatherWind HumidityBarometerVisibility
4:50 PM
Jan 25
36 °FLight rain. Fog.6 mph93%30.36 "Hg2 mi
4:20 PM36 °FLight rain. Fog.8 mph93%30.36 "Hg2 mi
3:50 PM36 °FLight rain. Fog.9 mph93%30.36 "Hg2 mi
3:20 PM36 °FFog.9 mph93%30.33 "Hg2 mi
2:50 PM37 °FPartly sunny.9 mph87%30.33 "Hg4 mi
2:20 PM37 °FBroken clouds.9 mph87%30.33 "Hg4 mi
1:50 PM36 °FBroken clouds.8 mph93%30.36 "Hg4 mi
1:20 PM36 °FBroken clouds.7 mph93%30.36 "Hg4 mi
12:50 PM36 °FPartly sunny.8 mph87%30.36 "Hg4 mi
12:20 PM36 °FPartly sunny.9 mph87%30.36 "Hg4 mi
11:50 AM36 °FFog.10 mph87%30.39 "Hg3 mi
11:20 AM36 °FPartly sunny.10 mph87%30.39 "Hg4 mi
10:50 AM34 °FClear.8 mph93%30.39 "Hg4 mi
10:20 AM34 °FClear.9 mph93%30.39 "Hg4 mi
9:50 AM34 °FClear.8 mph93%30.39 "Hg4 mi
9:20 AM34 °FPassing clouds.8 mph93%30.36 "Hg4 mi
8:50 AM34 °FPassing clouds.9 mph93%30.36 "Hg4 mi
8:20 AM34 °FPassing clouds.8 mph87%30.36 "Hg4 mi
7:50 AM34 °FPassing clouds.8 mph87%30.36 "Hg4 mi
7:20 AM34 °FPassing clouds.8 mph87%30.36 "Hg5 mi
6:50 AM34 °FPassing clouds.7 mph87%30.33 "Hg5 mi
6:20 AM34 °FPassing clouds.6 mph87%30.33 "HgN/A
5:50 AM34 °FPassing clouds.8 mph87%30.33 "HgN/A
5:20 AM32 °FPassing clouds.7 mph93%30.33 "HgN/A
10:50 PM
Jan 24
34 °FPassing clouds.6 mph87%30.27 "HgN/A
10:20 PM34 °FClear.7 mph93%30.27 "Hg10 mi
9:50 PM34 °FClear.6 mph93%30.24 "Hg10 mi
9:20 PM32 °FClear.6 mph93%30.24 "Hg10 mi
8:50 PM34 °FClear.7 mph87%30.24 "Hg10 mi
8:20 PM34 °FClear.7 mph87%30.24 "Hg10 mi
7:50 PM34 °FPassing clouds.6 mph87%30.21 "HgN/A
7:20 PM34 °FPassing clouds.6 mph93%30.21 "HgN/A
6:50 PM34 °FPassing clouds.6 mph93%30.18 "HgN/A
6:20 PM36 °FPartly cloudy.6 mph87%30.18 "HgN/A
Weather by CustomWeather, © 2014

See weather overviewHow to use our weather pages